Santa Ana, CA

1:01 PM PST on November 22, 2017 (GMT -0800)
John Wayne-Orange County

Weather History for KSNA - February, 2015

Change the Weather History Date:

Wednesday, February 18, 2015

  Actual Average Record
Temperature  
Mean Temperature 65 °F 58 °F  
Max Temperature 72 °F 66 °F 73 °F (2007)
Min Temperature 57 °F 49 °F 45 °F (2006)
Degree Days  
Heating Degree Days 0 8  
Month to date heating degree days 4 144  
Since 1 July heating degree days 209 836  
Cooling Degree Days 0 0  
Month to date cooling degree days 39 0  
Year to date cooling degree days 69 5  
Growing Degree Days 14 (Base 50)    
Moisture  
Dew Point 53 °F    
Average Humidity 65    
Maximum Humidity 77    
Minimum Humidity 53    
Precipitation  
Precipitation 0.00 in 0.13 in 0.33 in (2004)
Month to date precipitation T 1.72  
Year to date precipitation 0.82 4.63  
Snow  
Snow 0.00 in - - ()
Month to date snowfall 0.0  
Year to date snowfall 0.0  
Snow Depth 0.00 in    
Sea Level Pressure  
Sea Level Pressure 30.12 in    
Wind  
Wind Speed 3 mph (SW)    
Max Wind Speed 10 mph    
Max Gust Speed 14 mph    
Visibility 5 miles    
Events      
T = Trace of Precipitation, MM = Missing Value Source: NWS Daily Summary

Daily Weather History Graph

Daily Weather History Graph

Search for Another Location

Airport or City:

Trip Planner

Search our weather history database for the weather conditions in past years. The results will help you decide how hot, cold, wet, or windy it might be!

Date:

Astronomy

Feb. 18, 2015 Rise Set
Actual Time 6:32 AM PST 5:38 PM PST
Civil Twilight 6:07 AM PST 6:03 PM PST
Nautical Twilight 5:38 AM PST 6:32 PM PST
Astronomical Twilight 5:09 AM PST 7:01 PM PST
Moon 6:06 AM PST (2/18) 5:43 PM PST (2/18)
Length of Visible Light 11h 56m
Length of Day
11h 05m
Waning Crescent, 0% of the Moon is Illuminated
Feb 18
Waning Crescent
Feb 18
New
Feb 25
First Quarter
Mar 5
Full
Mar 13
Last Quarter

Hourly Weather History & Observations

Time (PST) Temp. Dew Point Humidity Pressure Visibility Wind Dir Wind Speed Gust Speed Precip Events Conditions
12:53 AM 59.0 °F 50.0 °F 72% 30.10 in 8.0 mi Calm Calm - N/A   Clear
1:53 AM 57.9 °F 50.0 °F 75% 30.10 in 7.0 mi Calm Calm - N/A   Clear
2:53 AM 57.0 °F 50.0 °F 77% 30.13 in 5.0 mi Calm Calm - N/A   Haze
3:11 AM 57.2 °F 50.0 °F 77% 30.13 in 6.0 mi Calm Calm - N/A   Haze
3:53 AM 57.9 °F 50.0 °F 75% 30.14 in 5.0 mi NE 3.5 mph - N/A   Haze
4:53 AM 59.0 °F 51.1 °F 75% 30.16 in 6.0 mi Calm Calm - N/A   Haze
5:53 AM 60.1 °F 51.1 °F 72% 30.17 in 6.0 mi East 5.8 mph - N/A   Haze
6:53 AM 61.0 °F 52.0 °F 72% 30.16 in 3.0 mi ENE 4.6 mph - N/A   Haze
7:53 AM 62.1 °F 53.1 °F 72% 30.15 in 3.0 mi Variable 3.5 mph - N/A   Haze
8:53 AM 63.0 °F 52.0 °F 67% 30.14 in 3.0 mi NNE 3.5 mph - N/A   Haze
9:41 AM 64.4 °F 51.8 °F 64% 30.12 in 3.0 mi Variable 4.6 mph - N/A   Haze
9:53 AM 66.0 °F 52.0 °F 60% 30.12 in 3.0 mi Calm Calm - N/A   Haze
10:53 AM 68.0 °F 53.1 °F 59% 30.11 in 4.0 mi Variable 4.6 mph - N/A   Haze
11:53 AM 69.1 °F 54.0 °F 58% 30.12 in 4.0 mi SW 6.9 mph - N/A   Haze
12:53 PM 71.1 °F 53.1 °F 53% 30.09 in 4.0 mi Variable 3.5 mph - N/A   Haze
1:53 PM 70.0 °F 53.1 °F 55% 30.09 in 5.0 mi SW 9.2 mph - N/A   Haze
2:53 PM 70.0 °F 53.1 °F 55% 30.06 in 5.0 mi Calm Calm - N/A   Haze
3:53 PM 69.1 °F 53.1 °F 57% 30.06 in 8.0 mi West 4.6 mph - N/A   Mostly Cloudy
4:53 PM 66.9 °F 54.0 °F 63% 30.06 in 8.0 mi SSW 3.5 mph - N/A   Mostly Cloudy
5:53 PM 64.9 °F 55.0 °F 70% 30.08 in 7.0 mi SW 8.1 mph - N/A   Mostly Cloudy
6:53 PM 64.0 °F 55.0 °F 73% 30.10 in 7.0 mi SW 4.6 mph - N/A   Mostly Cloudy
7:53 PM 64.0 °F 55.0 °F 73% 30.11 in 5.0 mi Calm Calm - N/A   Haze
8:53 PM 63.0 °F 55.0 °F 75% 30.12 in 5.0 mi Calm Calm - N/A   Haze
9:53 PM 62.1 °F 55.0 °F 78% 30.13 in 5.0 mi Calm Calm - N/A   Haze
10:00 PM 62.6 °F 55.4 °F 77% 30.13 in 5.0 mi Calm Calm - N/A   Haze
10:41 PM 62.6 °F 55.4 °F 77% 30.12 in 6.0 mi Calm Calm - N/A   Haze
10:53 PM 63.0 °F 55.0 °F 75% 30.13 in 5.0 mi Calm Calm - N/A   Haze
11:00 PM 62.6 °F 55.4 °F 77% 30.13 in 5.0 mi Calm Calm - N/A   Haze
11:07 PM 62.6 °F 55.4 °F 77% 30.13 in 6.0 mi Calm Calm - N/A   Haze
11:53 PM 62.1 °F 55.0 °F 78% 30.12 in 5.0 mi Calm Calm - N/A   Haze